User: anonymous   Login
Location: Unspecified
(0.0000°N, 0.0000°E)
Time: 07:15:46
(UTC+02:00)
Language:

GP-B - Orbit

View from above orbital plane
View from above orbital plane
View from above satellite
View from above satellite

Ground track
Ground track

The orbit data is extracted from the following two-line orbital elements,

1 28230U 04014A   17115.91258063 +.00000220 +00000-0 +27972-4 0  9998
2 28230 089.8440 123.0358 0002713 074.2262 285.9259 14.78530115158579
Epoch (UTC): 25 April 2017 21:54:06
Eccentricity: 0.0002713
inclination: 89.8440°
perigee height: 632 km
apogee height: 636 km
right ascension of ascending node: 123.0358°
argument of perigee: 74.2262°
revolutions per day: 14.78530115
mean anomaly at epoch: 285.9259°
orbit number at epoch: 15857

The dashed part of the orbit path shows where the satellite is in the earth's shadow,  

DLR